Wind_Speed
21 20 19 19 20 21 22 22 22 21 21 21 22 22 22 21 21 21 20 20 20 20 20 20 21 21 22 23 24 24 24 24 24 24 25 25 26 26 26 26 26 26 25
19 19 19 19 19 20 19 19 19 19 20 20 20 20 20 20 19 19 18 18 18 18 17 17 18 18 19 19 20 21 21 21 22 21 22 22 24 24 24 24 23 23 22
18 17 17 17 17 17 17 18 18 18 18 18 19 19 18 17 17 17 17 16 16 16 15 15 15 15 16 17 17 18 19 19 19 20 20 20 21 22 21 21 20 19 19
16 15 15 15 15 16 16 16 17 17 16 16 15 15 15 14 14 14 14 15 15 14 14 13 14 13 13 14 15 15 15 16 16 18 18 18 18 17 17 17 17 17 16
14 14 14 14 15 15 15 15 16 15 15 15 14 13 13 13 13 13 13 13 13 13 12 12 13 12 12 12 12 13 13 13 14 16 16 16 15 15 15 15 16 15 15
12 13 13 14 14 14 14 14 14 14 14 13 12 12 12 12 12 11 11 11 10 10 10 11 11 11 11 10 10 11 11 12 12 13 13 13 14 13 14 14 14 14 14
11 12 12 12 12 13 13 13 13 12 12 11 11 11 11 11 10 10 9 9 8 8 8 8 9 9 8 8 8 8 8 9 9 9 10 11 12 12 13 13 13 13 13
10 11 11 11 12 12 13 13 12 11 10 10 10 11 10 10 9 9 8 6 6 6 5 5 6 6 5 5 5 5 5 5 6 7 9 10 10 11 11 12 12 12 12
8 9 9 10 10 11 11 11 10 9 9 9 9 10 9 9 8 8 7 6 5 4 3 3 3 3 3 2 2 2 3 3 4 5 6 7 8 8 9 10 11 11 11
7 8 8 9 9 10 10 10 9 9 9 9 9 9 9 8 8 7 7 5 5 4 4 4 3 1 1 1 1 0 0 1 2 2 3 4 5 6 7 8 9 10 10
6 7 7 7 8 8 8 9 8 8 8 8 8 8 8 7 7 7 6 5 4 4 4 4 3 3 3 2 2 1 1 0 0 1 2 2 3 4 5 6 7 7 8
5 5 6 6 7 8 8 8 8 7 8 8 8 7 7 7 7 7 6 5 4 4 4 4 3 4 4 3 2 2 1 1 1 0 0 1 2 3 3 4 4 5 5
4 5 5 6 6 7 7 8 8 8 8 8 8 7 7 6 7 7 7 6 5 5 4 3 3 3 3 3 3 2 2 2 1 1 1 0 1 1 2 3 3 3 3
5 5 6 6 6 7 7 8 8 8 8 8 7 7 7 7 6 6 7 7 6 6 5 4 4 3 3 4 4 3 3 3 2 1 1 1 1 2 2 2 2 3 4
5 6 6 6 6 7 7 8 8 8 9 8 8 7 7 7 7 7 6 6 6 6 6 5 4 4 3 3 3 3 3 3 2 2 2 1 2 2 2 3 4 4 5
5 6 6 6 6 6 6 7 8 8 8 8 8 8 7 6 7 7 6 6 6 6 5 4 4 3 3 2 2 3 3 3 2 2 2 3 3 4 5 5 6 6 7
6 6 6 6 6 6 6 7 8 8 8 8 8 8 7 7 7 7 6 6 6 6 5 5 4 4 3 2 2 3 3 3 3 3 4 5 6 6 7 7 7 8 9
6 6 6 7 7 7 7 7 8 8 8 8 8 8 7 7 6 6 5 5 5 6 6 5 4 4 4 3 3 3 4 4 5 6 7 8 8 9 9 9 9 10 11
6 7 7 7 8 7 7 8 8 8 8 8 8 8 8 8 7 6 6 6 6 6 5 5 4 4 5 5 5 5 5 6 7 8 8 9 9 10 10 10 11 12 13
7 7 7 8 8 8 8 8 8 8 8 8 8 8 8 7 7 7 7 7 6 6 6 6 6 6 6 6 7 7 8 8 9 10 10 10 11 11 12 12 14 15 16
8 8 8 8 8 8 8 8 8 8 8 8 8 8 7 7 7 7 7 7 7 7 7 7 7 7 8 8 9 10 10 11 11 12 12 12 13 13 14 16 16 17 18
8 8 8 8 8 8 9 9 8 8 8 8 8 8 8 8 8 7 7 8 8 8 9 9 9 10 10 11 11 12 12 13 14 14 14 15 16 17 18 18 19 19 20
9 9 9 9 9 9 9 9 9 9 8 8 8 8 9 9 9 9 10 10 10 10 11 11 12 12 13 14 14 14 15 15 16 17 18 19 19 20 20 20 21 21 22
9 9 9 9 10 10 10 10 10 10 10 10 10 11 11 11 11 12 12 13 13 13 14 14 14 14 15 16 16 17 17 18 19 19 20 21 22 23 23 24 24 25 25
9 9 10 10 11 11 11 11 11 11 11 12 12 13 13 14 14 15 15 16 16 17 17 17 17 18 18 18 19 20 20 21 22 23 23 24 25 25 26 27 27 28 28
10 10 11 11 12 12 12 12 13 13 13 14 14 15 15 16 16 17 18 18 18 19 20 20 21 21 21 22 22 23 23 24 25 26 26 27 28 28 29 30 30 30 31
Wind_Direction
299 298 299 300 303 304 304 303 303 301 298 295 293 292 289 287 284 282 279 275 273 273 273 271 269 268 266 262 260 258 257 256 256 253 252 253 255 256 256 256 256 257 257
300 298 299 300 303 305 305 307 308 305 301 298 297 295 293 289 285 281 277 276 274 273 273 273 271 270 268 266 261 257 256 255 255 252 250 252 255 256 256 256 256 258 258
299 301 301 302 303 306 308 309 312 310 304 302 301 300 296 292 286 284 280 277 277 276 276 275 275 272 270 266 263 260 257 254 252 249 249 253 256 254 252 255 255 256 256
299 301 302 304 307 310 311 312 314 314 311 310 310 308 304 296 292 290 286 284 281 278 278 277 276 275 273 268 266 262 258 254 252 249 251 251 251 247 247 249 250 251 255
299 301 303 305 309 314 317 316 315 315 315 314 316 317 314 309 301 294 289 290 285 282 280 278 275 276 277 275 270 261 257 255 254 251 250 250 247 244 244 246 248 251 254
301 303 305 307 309 313 316 319 319 319 319 319 320 323 320 316 312 304 293 292 287 285 280 275 275 277 279 279 272 261 255 254 253 250 249 246 239 239 242 246 250 250 255
299 302 306 309 313 317 320 324 326 326 323 324 324 323 324 326 324 319 309 297 294 292 282 277 280 285 283 279 272 264 257 250 248 245 243 238 236 239 242 244 247 249 257
304 305 308 312 316 320 324 327 332 334 331 330 331 331 330 334 335 336 333 321 307 301 296 295 295 290 289 283 273 269 262 257 257 254 249 245 244 245 246 247 248 254 260
307 309 314 319 322 324 328 332 336 337 336 337 338 339 343 345 345 347 350 350 349 348 341 334 325 306 287 282 286 282 270 265 268 264 254 241 239 243 245 250 253 255 259
313 318 323 327 328 327 331 338 339 340 344 347 348 351 355 356 356 358 1 5 12 18 19 15 18 31 72 69 47 59 258 242 260 258 259 249 250 253 255 258 261 262 262
325 327 333 337 337 337 341 347 349 349 351 354 357 357 358 359 3 4 5 11 21 26 28 33 47 72 85 87 90 93 95 82 202 246 253 247 245 256 262 267 267 265 264
336 340 344 349 345 350 355 358 1 1 360 1 2 2 7 14 13 14 17 21 25 32 37 45 61 71 76 74 76 79 81 16 55 113 181 237 259 267 272 280 277 274 277
356 353 354 358 359 358 359 4 7 6 2 3 6 9 13 17 18 22 26 27 35 40 47 54 63 59 54 46 40 44 47 21 16 32 34 333 293 295 298 297 287 281 284
7 2 5 10 11 2 2 5 9 9 6 5 7 12 16 17 19 24 28 31 36 39 42 45 48 46 43 40 38 37 39 27 21 23 19 15 345 329 313 311 312 301 296
6 8 13 14 12 13 11 10 11 11 12 13 12 10 13 19 22 24 27 28 35 37 38 44 47 39 37 32 27 37 31 20 23 25 15 15 359 340 323 316 312 306 302
14 17 15 17 16 15 11 9 9 9 10 10 12 12 12 13 15 19 22 22 25 25 27 28 21 14 21 24 21 17 17 17 19 7 355 343 330 321 313 311 308 305 304
20 18 19 17 12 4 1 3 4 4 4 5 7 9 10 9 9 12 13 17 17 14 10 5 1 357 356 354 353 355 356 349 337 329 324 320 316 312 310 307 307 309 308
20 21 17 10 3 0 359 358 359 359 358 358 359 1 3 4 5 7 9 8 4 1 357 353 352 355 354 347 337 330 326 322 318 315 313 312 308 307 305 304 305 307 307
12 9 6 5 5 4 0 357 356 356 355 355 356 358 1 5 6 3 1 357 355 353 353 353 349 342 337 332 326 318 316 315 314 312 312 310 306 304 303 304 305 307 306
6 3 0 359 358 357 357 357 357 357 357 357 356 355 355 357 359 357 355 357 355 351 347 345 341 334 328 324 321 316 311 309 309 309 308 308 307 305 303 303 305 306 307
4 1 358 357 354 353 352 351 352 354 355 356 355 355 352 351 348 348 349 347 341 336 332 330 329 326 322 318 315 312 309 306 304 302 301 301 301 301 301 300 301 302 304
7 2 358 357 355 354 352 350 348 347 347 346 346 345 344 343 340 339 336 332 328 324 323 323 321 317 314 311 309 308 306 305 303 301 300 299 299 300 300 300 298 299 301
6 3 0 358 356 355 354 353 349 344 340 336 334 332 332 331 329 327 327 324 318 317 316 314 313 311 309 307 305 303 301 299 299 298 297 298 298 299 299 300 301 300 300
1 359 358 356 353 350 348 346 344 340 336 333 330 327 323 320 316 315 316 316 313 312 311 309 308 307 306 305 304 303 301 299 298 297 297 298 298 297 297 296 297 297 299
352 350 349 348 346 343 340 337 336 334 330 327 326 323 320 317 313 311 311 310 308 307 306 305 304 303 302 301 301 301 300 300 299 297 296 296 296 296 296 295 295 296 297
345 345 343 341 339 337 333 329 326 325 322 319 317 315 314 313 312 310 309 306 305 304 304 303 303 301 300 300 300 299 299 298 298 297 296 296 296 296 296 296 296 296 297
Height
5784 5782 5779 5776 5774 5771 5768 5765 5762 5759 5756 5754 5752 5750 5748 5746 5745 5743 5743 5742 5741 5741 5740 5740 5739 5739 5739 5740 5740 5741 5742 5744 5746 5748 5749 5751 5753 5754 5756 5758 5759 5760 5761
5779 5776 5774 5771 5769 5766 5763 5760 5757 5754 5751 5749 5747 5744 5742 5741 5739 5738 5737 5737 5736 5735 5735 5734 5734 5733 5733 5734 5734 5735 5736 5737 5739 5741 5743 5744 5746 5748 5749 5751 5753 5754 5755
5774 5771 5769 5767 5765 5762 5759 5756 5753 5750 5747 5745 5743 5740 5738 5736 5735 5734 5733 5732 5731 5730 5730 5729 5729 5729 5729 5729 5729 5730 5731 5732 5733 5735 5736 5738 5739 5741 5743 5745 5747 5748 5750
5769 5767 5765 5763 5761 5758 5755 5752 5750 5747 5744 5742 5739 5737 5735 5733 5731 5730 5729 5728 5727 5726 5726 5726 5725 5725 5725 5725 5725 5725 5726 5727 5728 5729 5730 5732 5734 5736 5738 5740 5742 5743 5745
5765 5763 5761 5759 5757 5755 5752 5749 5746 5744 5741 5739 5737 5734 5732 5729 5728 5726 5725 5724 5724 5723 5723 5722 5722 5722 5721 5721 5721 5722 5722 5723 5724 5725 5726 5728 5729 5732 5734 5736 5738 5739 5741
5762 5760 5758 5756 5754 5752 5749 5747 5744 5741 5739 5736 5734 5732 5729 5727 5725 5724 5723 5721 5721 5720 5720 5719 5719 5719 5718 5718 5718 5719 5719 5720 5721 5722 5723 5724 5726 5728 5731 5732 5734 5736 5737
5759 5757 5755 5753 5751 5749 5747 5744 5742 5739 5737 5734 5732 5730 5728 5725 5724 5722 5720 5719 5718 5718 5717 5717 5717 5716 5716 5715 5716 5716 5717 5717 5718 5719 5720 5722 5724 5726 5728 5729 5731 5733 5734
5756 5754 5753 5751 5749 5747 5744 5742 5740 5737 5735 5733 5731 5729 5726 5724 5722 5721 5719 5718 5717 5716 5716 5715 5715 5715 5714 5714 5714 5715 5715 5716 5717 5718 5719 5720 5722 5723 5725 5727 5728 5729 5730
5753 5752 5750 5748 5747 5745 5742 5740 5738 5736 5734 5732 5730 5728 5726 5724 5722 5720 5719 5718 5716 5715 5715 5714 5714 5714 5714 5713 5714 5714 5715 5715 5716 5717 5718 5719 5720 5721 5723 5724 5725 5726 5727
5751 5749 5748 5746 5744 5743 5741 5739 5737 5735 5733 5731 5729 5727 5725 5724 5722 5720 5719 5718 5717 5716 5715 5714 5714 5714 5714 5714 5714 5715 5715 5716 5716 5717 5717 5718 5719 5720 5721 5722 5722 5723 5724
5749 5748 5746 5745 5743 5741 5740 5738 5736 5735 5733 5731 5729 5727 5726 5724 5722 5721 5719 5718 5717 5716 5716 5715 5715 5714 5714 5714 5715 5715 5716 5716 5716 5717 5718 5718 5718 5719 5720 5720 5721 5721 5721
5748 5747 5745 5744 5743 5741 5739 5738 5736 5735 5733 5731 5730 5728 5726 5724 5723 5722 5720 5719 5718 5717 5717 5716 5716 5716 5716 5716 5716 5716 5717 5717 5717 5717 5718 5718 5718 5719 5719 5719 5719 5719 5719
5748 5746 5745 5744 5742 5741 5739 5738 5736 5735 5733 5732 5730 5728 5727 5725 5724 5723 5722 5721 5720 5719 5719 5718 5718 5718 5718 5718 5718 5718 5718 5718 5718 5718 5718 5718 5718 5718 5718 5718 5718 5718 5718
5748 5747 5745 5744 5742 5741 5740 5738 5737 5735 5734 5732 5731 5729 5728 5727 5726 5725 5723 5722 5721 5721 5720 5720 5719 5719 5719 5719 5719 5719 5719 5719 5718 5718 5718 5718 5718 5718 5718 5718 5718 5717 5717
5748 5747 5745 5744 5743 5742 5740 5739 5738 5736 5735 5734 5732 5731 5729 5728 5727 5726 5725 5724 5723 5723 5722 5721 5721 5721 5721 5721 5720 5720 5720 5720 5719 5719 5719 5719 5718 5718 5718 5717 5717 5716 5716
5749 5748 5746 5745 5744 5743 5741 5740 5739 5737 5736 5735 5733 5732 5730 5729 5728 5728 5727 5726 5725 5725 5724 5723 5723 5723 5722 5722 5721 5721 5721 5720 5720 5720 5719 5719 5718 5718 5717 5716 5716 5715 5714
5750 5748 5747 5746 5745 5744 5742 5741 5740 5738 5737 5735 5734 5733 5731 5730 5729 5729 5728 5727 5727 5726 5725 5725 5724 5723 5723 5722 5722 5721 5721 5721 5720 5720 5719 5718 5718 5717 5716 5715 5714 5713 5712
5750 5749 5748 5747 5746 5744 5743 5742 5740 5739 5737 5736 5734 5733 5732 5731 5730 5729 5729 5728 5727 5726 5726 5725 5724 5724 5723 5722 5722 5721 5721 5720 5720 5719 5718 5717 5716 5715 5714 5713 5712 5711 5709
5751 5750 5749 5748 5746 5745 5743 5742 5740 5739 5738 5736 5735 5734 5732 5731 5731 5730 5729 5728 5727 5727 5726 5725 5724 5724 5723 5722 5721 5721 5720 5719 5719 5718 5716 5715 5714 5713 5712 5710 5709 5707 5706
5752 5751 5750 5748 5747 5745 5744 5742 5741 5739 5738 5736 5735 5734 5733 5732 5731 5730 5729 5728 5727 5727 5726 5725 5724 5724 5723 5722 5721 5720 5719 5718 5717 5716 5714 5713 5711 5710 5709 5707 5705 5703 5701
5753 5751 5750 5749 5747 5746 5744 5743 5741 5740 5738 5737 5736 5734 5733 5732 5731 5730 5729 5728 5727 5726 5726 5725 5724 5723 5722 5721 5719 5718 5717 5716 5714 5713 5711 5710 5708 5707 5705 5703 5701 5699 5697
5753 5752 5750 5749 5747 5746 5744 5743 5741 5740 5738 5737 5736 5734 5733 5732 5731 5730 5729 5728 5727 5725 5724 5723 5722 5721 5720 5718 5717 5716 5714 5713 5711 5710 5708 5706 5704 5702 5700 5698 5696 5693 5691
5754 5752 5750 5749 5747 5746 5744 5743 5741 5740 5738 5737 5735 5734 5732 5731 5730 5729 5728 5726 5725 5724 5722 5721 5720 5718 5717 5715 5714 5712 5711 5709 5707 5705 5704 5702 5699 5697 5695 5692 5690 5687 5685
5754 5752 5751 5749 5747 5746 5744 5742 5741 5739 5737 5736 5734 5733 5731 5730 5728 5727 5725 5724 5723 5721 5719 5718 5716 5715 5713 5711 5710 5708 5706 5704 5702 5700 5698 5696 5693 5691 5688 5686 5683 5681 5678
5754 5752 5751 5749 5747 5745 5743 5742 5740 5738 5736 5734 5733 5731 5729 5727 5726 5724 5722 5721 5719 5717 5716 5714 5712 5710 5708 5706 5704 5703 5701 5698 5696 5694 5691 5689 5686 5684 5681 5678 5676 5673 5670
5754 5752 5750 5748 5746 5744 5742 5740 5738 5736 5734 5732 5730 5728 5726 5724 5723 5721 5718 5716 5714 5713 5711 5709 5707 5705 5702 5700 5698 5696 5694 5692 5689 5686 5684 5681 5678 5675 5673 5670 5667 5664 5661